Погода Сангары

Погода Сангары : погода сейчас, прогноз погоды и архив. Всё, что Вы хотите узнать о погоде Сангары!

Хотите узнать прогноз погоды Сангары? Тогда Вам сюда: Погода Сангары

Поиск расширенной информации на нашем сайте:

Другие новости

Новости СМИ2

Главная страница сайта

Новости сайта

02.10.2013

Напоминаем, что на нашем новом сайте вы можете получить высокодетализированные прогнозы погоды по пунктам России, СНГ и мира (включающие важные для авиации метеовеличины, такие как направление и скорость ветра, видимость, явления погоды, количество и форма облачности, нижняя и верхняя граница облачности), а также ознакомиться с разнообразными материалами по авиационной метеорологии и подборкой полезных ссылок на эту тему.

Сайт Метеоцентр.Азия посвящён разработке технологий оптимизации авиаметеорологического обслуживания, включая проектирование и перспективное создание нескольких автоматизированных авиаметеорологических систем:
- система выпуска высокодетальных прогностических карт явлений погоды для нижнего воздушного пространства по России и ближнему зарубежью;
- система верификации прогнозов TAF (выпускаемых синоптиками официальных АМСГ РФ и ближнего зарубежья) и AUTOTAF (выпускаемых сайтом Метеоцентр.Азия) - выявление ошибок, онлайн-сопоставление с фактической погодой METAR, автоматическое внесение коррективов в прогнозы при резком отклонении фактической погоды от прогноза, подсчёт оправдываемости прогнозов по элементам и в целом;
- система обработки, анализа и отображения авиаметеорологической информации для применения провайдерами метеорологической информации.

Рекомендуем: лесные жители белфакс

Погода Сангары - сегодня

Время (UTC), дата Ветер
(°,м/с) 
Видим.   Явления Облачность Т
(°С)
Тd
(°С)
f(%) Тe
(°С)
Pmin
(гПа)
dP
(гПа)
Po
(мм)
O2
(г/м3)
Тmin Tmax R s Состояние
почвы
12 21.04.17 100 (В) 20000 м    10/0 средняя, верхняя 
[Ac trans|Ci fib]
+6.4 -5.8 41 +5  1008.5  1.4  748  295    +9.4       
15 21.04.17 110 (В) 10 км  слаб. ливневой дождь  10/8 700 м кучево-дожд., средняя 
[Cb calv|Ac und]
+4 +1.2 82 +3  1010.4  1.8  749  297           
18 21.04.17 100 (В) 10 км  слаб. ливневой дождь  10/5 600 м кучево-дожд., средняя 
[Cb calv|Ac und]
+2 +0.4 89 +3  1010.4  -0.1  749  299           
21 21.04.17 070 (В) 20000 м  {ливн. осадки}  10/5 600 м кучево-дожд., средняя 
[Cb calv|Ac und]
+2.8 +0.1 82 +4  1010.4  749  299           
00 22.04.17 100 (В) 5-10{11}  20000 м  {ливн. осадки}  9/3 600 м кучево-дожд., средняя 
[Cb calv|Ac trans]
+5.6 -1.4 61 +4  1010.6  0.4  749  296  +2    0.4  17  равномерный
мокрый или
старый снег
100% 
03 22.04.17 090 (В) 6-11{14}  20000 м    10/0 средняя, верхняя 
[Ac trans|Ci fib]
+7.4 -2.3 50 +5  1011.4  0.8  750  294           
06 22.04.17 100 (В) 5-10{14}  20000 м    10/3 600 м кучево-дожд., средняя, верхняя 
[Cb calv|Ac trans|Ci fib]
+7.4 -4.6 42 +6  1012.6  1.2  751  295           
09 22.04.17 100 (В) 5{10}  20000 м    10/4 600 м кучево-дожд., средняя 
[Cb calv|Ac und]
+7.6 -3.9 44 +6  1014.4  1.8  752  295           
12 22.04.17 180 (Ю) 20000 м    10/6 1000 м кучево-дожд., средняя 
[Cb calv|Ac und]
+7.6 -3.9 44 +7  1016.6  2.2  754  296    +7.7       
15 22.04.17 270 (З) 10 км    9/3 1000 м средняя 
[Sc|Ac und]
+1.7 +0.3 90 1019.4  2.5  756  302           
18 22.04.17 тихо ()   10 км    10/5 300 м средняя 
[St|Ac und]
+0.5 -0.3 94 +1  1020.9  1.4  757  304           
21 22.04.17 280 (З) 20000 м    10/10 180 м 
[St]
+1 +0.2 94 +2  1022.4  1.5  758  304           
00 23.04.17 290 (З) 20000 м    10/0 
[St]
+0.7 -0.7 90 -1  1005.1  -2.8  752  302  +0.4      15  равномерный
мокрый или
старый снег
100% 
03 23.04.17 320 (СЗ) 20000 м    3/0 верхняя 
[Ci fib]
+3.2 -0.6 76 +1  1024  -1.1  759  302           
06 23.04.17 320 (СЗ) 20000 м    ясно 
+4.3 -0.8 69 +3  1024.1  0.1  759  301           
09 23.04.17 320 (СЗ) 20000 м    ясно 
+4 -1.5 67 +2  1023.6  -0.5  759  301           
12 23.04.17 300 (СЗ) 20000 м    ясно 
+2.8 -4.1 60 +1  1023.4  -0.2  759  303    +5.2       
15 23.04.17 300 (СЗ) 10 км    ясно 
+0.2 -5.4 66 -3  1023  -0.5  758  306           
18 23.04.17 300 (СЗ) 10 км    ясно 
-1.7 -8.6 59 -5  1022.5  -0.6  758  308           
21 23.04.17 280 (З) 20000 м    ясно 
-2 -8.2 62 -3  1022.9  0.4  758  309           
00 24.04.17 310 (СЗ) 20000 м    8/0 средняя, верхняя 
[Ac trans|Cc]
+0.1 -7.5 57 -2  1023.6  0.8  759  306  -2.4      мокрый или
старый снег
50-90% 
03 24.04.17 310 (СЗ) 20000 м    10/0 средняя, верхняя 
[Ac trans|Cc]
+3.6 -7.5 44 +1  1023.4  -0.1  759  302           
06 24.04.17 310 (СЗ) 5{11}  20000 м    9/0 средняя 
[Ac und]
+3.5 -7.6 44 +1  1023.4  759  303           
09 24.04.17 310 (СЗ) 20000 м    3/0 верхняя 
[Ci fib]
+4.1 -9 38 +1  1023.5  0.1  759  302           
12 24.04.17 310 (СЗ) 20000 м    ясно 
+1.4 -5.2 61 1024.2  0.6  759  305    +4.3       
Время (UTC), дата Ветер
(°,м/с) 
Видим.   Явления Облачность Т
(°С)
Тd
(°С)
f(%) Тe
(°С)
Pmin
(гПа)
dP
(гПа)
Po
(мм)
O2
(г/м3)
Тmin Tmax R s Состояние
почвы

Для получения пояснительной информации подведите курсор к названию столбца.

ПОГОДА Сангары - архив

Всё, что Вы хотите узнать о погоде Сангары - удобно и подробно!

Выберите нужную дату (начиная с 1 января 2015* года) и нажмите кнопку "Найти".
Будут отображены архивные сводки погоды по пункту Сангары, начиная с указанной даты.


Отображать данные в формате CSV (для использования в таблицах Excel)


Внимание! Наш архив погоды предназначен исключительно для личного некоммерческого использования в познавательных целях. Если Вам необходимы официальные справки о состоянии погоды (для производственных, юридических, коммерческих и т.п. целей), обращайтесь в органы Росгидромета.

*Примечание: данная дата относится к архиву по метеостанциям СССР (Россия, СНГ, Балтия).
Архив по метеостанциям Зарубежной Европы и Азии (кроме Китая) хранится 10 дней, по другим регионам земного шара (Китай, Африка, Америка, Австралия, Океания) - 1 день.

Сангары - район местоположения метеостанции


Название, широта, долгота, высота метеостанции:
Сангары 64°ш. 127.5°д. 96 м над ур. моря [Российская Федерация]

Дополнительная информация

В oтличие oт бoльшинства пoгoдных сайтoв мы публикуем пoдрoбную метеoинфoрмацию в детальнoм прoфессиoнальнoм фoрмате.

Характеристики температуры и влажнoсти вoздуха измеряются на высoте 2 м в тени вдали oт зданий и деревьев.
Скoрoсть ветра измеряется на высoте 10 м (на урoвне рoста челoвека скoрoсть ветра ниже в 1.5-2 раза). Если метеoстанция нахoдится в гoрoде или в лесу, тo скoрoсть ветра занижена на 2-4 м/с пo сравнению с oткрытым местoм. Скoрoсть ветра над акватoриями крупных рек и oзёр, а также на вершинах хoлмoв на 2-5 м/с выше, чем в oбычных услoвиях.
Атмoсфернoе давление в разных тoчках местнoсти мoжет значительнo oтличаться oт давления на метеoстанции, в зависимoсти oт услoвий рельефа (при пoдъёме на 10 м давление пoнижается примернo на 1 мм рт.ст.).